| time (UTC) | temp F | wind direction | speed MPH | gust MPH | rain 1hr in | rain 24hr in | rain mn in | humidity % | barometer mb |
| 20260505050801 | 69 | 87 | 1.0 | 3.0 | 0.00 | 0.00 | 0.00 | 52 | 1008.1 |
| 20260505050526 | 69 | 87 | 2.0 | 3.0 | 0.00 | 0.00 | 0.00 | 52 | 1007.9 |
| 20260505041739 | 68 | 64 | 2.0 | 3.0 | 0.00 | 0.00 | 0.00 | 51 | 1007.7 |
| 20260505041244 | 68 | 64 | 1.0 | 3.0 | 0.00 | 0.00 | 0.00 | 52 | 1007.7 |
| 20260505040739 | 69 | 64 | 0.0 | 2.0 | 0.00 | 0.00 | 0.00 | 51 | 1007.7 |
| 20260505040234 | 69 | 64 | 1.0 | 3.0 | 0.00 | 0.00 | 0.00 | 52 | 1007.6 |
| 20260505035732 | 69 | 64 | 2.0 | 3.0 | 0.00 | 0.00 | 0.00 | 51 | 1007.6 |
| 20260505035230 | 69 | 64 | 2.0 | 3.0 | 0.00 | 0.00 | 0.00 | 50 | 1007.5 |
| 20260505034730 | 69 | 64 | 2.0 | 3.0 | 0.00 | 0.00 | 0.00 | 50 | 1007.4 |
| 20260505034230 | 70 | 64 | 2.0 | 3.0 | 0.00 | 0.00 | 0.00 | 51 | 1007.4 |
| 20260505033729 | 70 | 64 | 2.0 | 3.0 | 0.00 | 0.00 | 0.00 | 51 | 1007.4 |
| 20260505033229 | 70 | 58 | 2.0 | 3.0 | 0.00 | 0.00 | 0.00 | 50 | 1007.3 |
| 20260505032729 | 71 | 57 | 2.0 | 3.0 | 0.00 | 0.00 | 0.00 | 50 | 1007.3 |
| 20260505032229 | 71 | 57 | 2.0 | 3.0 | 0.00 | 0.00 | 0.00 | 49 | 1007.3 |
| 20260505031728 | 71 | 56 | 1.0 | 3.0 | 0.00 | 0.00 | 0.00 | 49 | 1007.3 |
| 20260505031229 | 72 | 56 | 0.0 | 3.0 | 0.00 | 0.00 | 0.00 | 48 | 1007.3 |
| 20260505030728 | 73 | 56 | 1.0 | 3.0 | 0.00 | 0.00 | 0.00 | 48 | 1007.2 |
| 20260505030237 | 72 | 53 | 2.0 | 3.0 | 0.00 | 0.00 | 0.00 | 47 | 1007.2 |
| 20260505025732 | 73 | 51 | 1.0 | 3.0 | 0.00 | 0.00 | 0.00 | 47 | 1007.2 |
| 20260505025231 | 74 | 339 | 1.0 | 2.0 | 0.00 | 0.00 | 0.00 | 46 | 1007.3 |
| 20260505024724 | 76 | 333 | 1.0 | 4.0 | 0.00 | 0.00 | 0.00 | 43 | 1007.2 |
| 20260505024225 | 76 | 332 | 1.0 | 4.0 | 0.00 | 0.00 | 0.00 | 43 | 1007.2 |
| 20260505023724 | 77 | 328 | 1.0 | 3.0 | 0.00 | 0.00 | 0.00 | 42 | 1007.2 |
| 20260505023225 | 78 | 328 | 2.0 | 3.0 | 0.00 | 0.00 | 0.00 | 42 | 1007.2 |
| 20260505022723 | 77 | 327 | 2.0 | 3.0 | 0.00 | 0.00 | 0.00 | 42 | 1007.3 |
| 20260505022222 | 78 | 328 | 2.0 | 3.0 | 0.00 | 0.00 | 0.00 | 39 | 1007.4 |
| 20260505021722 | 78 | 317 | 2.0 | 3.0 | 0.00 | 0.00 | 0.00 | 39 | 1007.4 |
| 20260505021454 | 78 | 316 | 2.0 | 4.0 | 0.00 | 0.00 | 0.00 | 38 | 1007.4 |
| 20260505020720 | 78 | 316 | 3.0 | 5.0 | 0.00 | 0.00 | 0.00 | 39 | 1007.4 |
| 20260505020452 | 79 | 312 | 2.0 | 5.0 | 0.00 | 0.00 | 0.00 | 36 | 1007.5 |
| 20260505015723 | 80 | 311 | 2.0 | 5.0 | 0.00 | 0.00 | 0.00 | 37 | 1007.5 |
| 20260505015220 | 80 | 276 | 3.0 | 8.0 | 0.00 | 0.00 | 0.00 | 37 | 1007.6 |
| 20260505014720 | 80 | 251 | 4.0 | 8.0 | 0.00 | 0.00 | 0.00 | 37 | 1007.6 |
| 20260505014221 | 80 | 332 | 3.0 | 9.0 | 0.00 | 0.00 | 0.00 | 36 | 1007.6 |
| 20260505013720 | 80 | 309 | 2.0 | 9.0 | 0.00 | 0.00 | 0.00 | 37 | 1007.7 |
| 20260505013221 | 80 | 326 | 3.0 | 8.0 | 0.00 | 0.00 | 0.00 | 40 | 1007.6 |
| 20260505012724 | 80 | 308 | 4.0 | 9.0 | 0.00 | 0.00 | 0.00 | 38 | 1007.7 |
| 20260505012217 | 79 | 341 | 4.0 | 9.0 | 0.00 | 0.00 | 0.00 | 40 | 1007.7 |
| 20260505011716 | 79 | 343 | 3.0 | 6.0 | 0.00 | 0.00 | 0.00 | 40 | 1007.7 |
| 20260505011216 | 80 | 301 | 3.0 | 10.0 | 0.00 | 0.00 | 0.00 | 35 | 1007.8 |
| 20260505010715 | 80 | 359 | 4.0 | 10.0 | 0.00 | 0.00 | 0.00 | 34 | 1007.8 |
| 20260505010216 | 80 | 299 | 4.0 | 9.0 | 0.00 | 0.00 | 0.00 | 34 | 1007.8 |
| 20260505005716 | 79 | 260 | 4.0 | 7.0 | 0.00 | 0.00 | 0.00 | 34 | 1007.9 |
| 20260505004714 | 81 | 318 | 4.0 | 10.0 | 0.00 | 0.00 | 0.00 | 34 | 1007.9 |
| 20260505004214 | 80 | 315 | 3.0 | 8.0 | 0.00 | 0.00 | 0.00 | 35 | 1008.0 |
| 20260505003714 | 80 | 316 | 4.0 | 8.0 | 0.00 | 0.00 | 0.00 | 39 | 1008.0 |
| 20260505003210 | 80 | 349 | 4.0 | 8.0 | 0.00 | 0.00 | 0.00 | 38 | 1008.0 |
| 20260505002938 | 80 | 311 | 3.0 | 5.0 | 0.00 | 0.00 | 0.00 | 40 | 1008.0 |
| 20260505002210 | 79 | 359 | 4.0 | 6.0 | 0.00 | 0.00 | 0.00 | 41 | 1008.0 |
| 20260505001710 | 79 | 316 | 4.0 | 6.0 | 0.00 | 0.00 | 0.00 | 41 | 1008.1 |
| 20260505001209 | 81 | 309 | 4.0 | 6.0 | 0.00 | 0.00 | 0.00 | 41 | 1008.2 |
| 20260505000715 | 80 | 309 | 4.0 | 7.0 | 0.00 | 0.00 | 0.00 | 42 | 1008.1 |
| 20260504235713 | 81 | 309 | 3.0 | 8.0 | 0.00 | 0.00 | 0.00 | 41 | 1008.2 |
| 20260504235210 | 82 | 316 | 3.0 | 7.0 | 0.00 | 0.00 | 0.00 | 38 | 1008.2 |
| 20260504234936 | 81 | 72 | 3.0 | 6.0 | 0.00 | 0.00 | 0.00 | 40 | 1008.2 |
| 20260504234210 | 82 | 334 | 3.0 | 5.0 | 0.00 | 0.00 | 0.00 | 36 | 1008.3 |
| 20260504233710 | 82 | 315 | 4.0 | 6.0 | 0.00 | 0.00 | 0.00 | 38 | 1008.3 |
| 20260504233434 | 82 | 314 | 4.0 | 7.0 | 0.00 | 0.00 | 0.00 | 39 | 1008.2 |
| 20260504232708 | 81 | 325 | 4.0 | 7.0 | 0.00 | 0.00 | 0.00 | 39 | 1008.3 |
| 20260504232435 | 81 | 319 | 4.0 | 6.0 | 0.00 | 0.00 | 0.00 | 40 | 1008.3 |
| 20260504231707 | 82 | 300 | 4.0 | 6.0 | 0.00 | 0.00 | 0.00 | 41 | 1008.3 |
| 20260504231205 | 81 | 326 | 3.0 | 5.0 | 0.00 | 0.00 | 0.00 | 42 | 1008.3 |
| 20260504230926 | 81 | 328 | 3.0 | 5.0 | 0.00 | 0.00 | 0.00 | 42 | 1008.4 |
| 20260504230432 | 80 | 320 | 2.0 | 5.0 | 0.00 | 0.00 | 0.00 | 42 | 1008.4 |
| 20260504225934 | 80 | 309 | 2.0 | 5.0 | 0.00 | 0.00 | 0.00 | 43 | 1008.6 |
| 20260504225202 | 78 | 273 | 3.0 | 5.0 | 0.00 | 0.00 | 0.00 | 43 | 1008.8 |
| 20260504224708 | 80 | 318 | 3.0 | 5.0 | 0.00 | 0.00 | 0.00 | 43 | 1008.9 |
| 20260504224431 | 79 | 342 | 2.0 | 5.0 | 0.00 | 0.00 | 0.00 | 45 | 1008.9 |
| 20260504223924 | 79 | 325 | 2.0 | 5.0 | 0.00 | 0.00 | 0.00 | 43 | 1008.9 |
| 20260504223155 | 78 | 309 | 3.0 | 7.0 | 0.00 | 0.00 | 0.00 | 43 | 1008.9 |
| 20260504222916 | 77 | 302 | 2.0 | 7.0 | 0.00 | 0.00 | 0.00 | 45 | 1008.9 |
| 20260504222153 | 77 | 308 | 2.0 | 6.0 | 0.00 | 0.00 | 0.00 | 45 | 1009.0 |
| 20260504221652 | 77 | 285 | 3.0 | 7.0 | 0.00 | 0.00 | 0.00 | 45 | 1009.0 |
| 20260504221141 | 75 | 273 | 3.0 | 8.0 | 0.00 | 0.00 | 0.00 | 44 | 1009.0 |
| 20260504220639 | 76 | 232 | 3.0 | 8.0 | 0.00 | 0.00 | 0.00 | 44 | 1008.9 |
| 20260504220139 | 76 | 274 | 3.0 | 6.0 | 0.00 | 0.00 | 0.00 | 41 | 1009.1 |
| 20260504215637 | 77 | 266 | 3.0 | 5.0 | 0.00 | 0.00 | 0.00 | 41 | 1009.1 |
| 20260504215138 | 77 | 241 | 3.0 | 5.0 | 0.00 | 0.00 | 0.00 | 43 | 1009.1 |
| 20260504214638 | 76 | 259 | 3.0 | 6.0 | 0.00 | 0.00 | 0.00 | 42 | 1009.1 |
| 20260504214138 | 76 | 169 | 3.0 | 8.0 | 0.00 | 0.00 | 0.00 | 44 | 1009.0 |
| 20260504213900 | 75 | 259 | 3.0 | 8.0 | 0.00 | 0.00 | 0.00 | 44 | 1009.1 |
| 20260504213134 | 76 | 274 | 3.0 | 5.0 | 0.00 | 0.00 | 0.00 | 42 | 1009.2 |
| 20260504212630 | 76 | 299 | 3.0 | 5.0 | 0.00 | 0.00 | 0.00 | 41 | 1009.3 |
| 20260504212129 | 75 | 285 | 3.0 | 5.0 | 0.00 | 0.00 | 0.00 | 47 | 1009.3 |
| 20260504211629 | 74 | 280 | 3.0 | 7.0 | 0.00 | 0.00 | 0.00 | 46 | 1009.3 |
| 20260504211129 | 74 | 285 | 4.0 | 8.0 | 0.00 | 0.00 | 0.00 | 43 | 1009.3 |
| 20260504210630 | 75 | 312 | 4.0 | 8.0 | 0.00 | 0.00 | 0.00 | 46 | 1009.5 |
| 20260504210129 | 75 | 265 | 3.0 | 8.0 | 0.00 | 0.00 | 0.00 | 46 | 1009.5 |
| 20260504205631 | 75 | 285 | 3.0 | 8.0 | 0.00 | 0.00 | 0.00 | 44 | 1009.4 |
| 20260504205130 | 75 | 230 | 3.0 | 7.0 | 0.00 | 0.00 | 0.00 | 44 | 1009.5 |
| 20260504204623 | 74 | 319 | 3.0 | 5.0 | 0.00 | 0.00 | 0.00 | 46 | 1009.5 |
| 20260504204116 | 74 | 312 | 3.0 | 5.0 | 0.00 | 0.00 | 0.00 | 47 | 1009.6 |
| 20260504203610 | 74 | 306 | 3.0 | 5.0 | 0.00 | 0.00 | 0.00 | 48 | 1009.5 |
| 20260504203105 | 74 | 321 | 3.0 | 5.0 | 0.00 | 0.00 | 0.00 | 48 | 1009.6 |
| 20260504202605 | 75 | 315 | 3.0 | 5.0 | 0.00 | 0.00 | 0.00 | 46 | 1009.5 |
| 20260504202335 | 76 | 311 | 3.0 | 5.0 | 0.00 | 0.00 | 0.00 | 45 | 1009.5 |
| 20260504201605 | 75 | 314 | 3.0 | 5.0 | 0.00 | 0.00 | 0.00 | 47 | 1009.6 |
| 20260504201103 | 75 | 330 | 3.0 | 5.0 | 0.00 | 0.00 | 0.00 | 45 | 1009.7 |
| 20260504200604 | 75 | 314 | 4.0 | 5.0 | 0.00 | 0.00 | 0.00 | 48 | 1009.7 |
| 20260504200104 | 75 | 322 | 3.0 | 5.0 | 0.00 | 0.00 | 0.00 | 47 | 1009.7 |
| 20260504195602 | 75 | 308 | 3.0 | 5.0 | 0.00 | 0.00 | 0.00 | 46 | 1009.7 |
| 20260504195103 | 73 | 278 | 2.0 | 5.0 | 0.00 | 0.00 | 0.00 | 48 | 1009.6 |
| 20260504194104 | 74 | 333 | 3.0 | 5.0 | 0.00 | 0.00 | 0.00 | 48 | 1009.5 |
| 20260504193604 | 74 | 320 | 3.0 | 4.0 | 0.00 | 0.00 | 0.00 | 52 | 1009.6 |
| 20260504193325 | 73 | 307 | 2.0 | 4.0 | 0.00 | 0.00 | 0.00 | 49 | 1009.5 |
| 20260504192829 | 74 | 321 | 2.0 | 5.0 | 0.00 | 0.00 | 0.00 | 51 | 1009.5 |
| 20260504192101 | 73 | 305 | 2.0 | 5.0 | 0.00 | 0.00 | 0.00 | 52 | 1009.5 |
| 20260504191601 | 73 | 320 | 2.0 | 4.0 | 0.00 | 0.00 | 0.00 | 51 | 1009.6 |
| 20260504191101 | 72 | 316 | 2.0 | 4.0 | 0.00 | 0.00 | 0.00 | 53 | 1009.6 |
| 20260504190827 | 72 | 312 | 2.0 | 4.0 | 0.00 | 0.00 | 0.00 | 52 | 1009.7 |
| 20260504190059 | 72 | 314 | 2.0 | 4.0 | 0.00 | 0.00 | 0.00 | 50 | 1009.7 |
| 20260504185553 | 72 | 326 | 2.0 | 4.0 | 0.00 | 0.00 | 0.00 | 53 | 1009.8 |
| 20260504185047 | 71 | 321 | 2.0 | 4.0 | 0.00 | 0.00 | 0.00 | 53 | 1009.8 |
| 20260504184547 | 71 | 319 | 2.0 | 4.0 | 0.00 | 0.00 | 0.00 | 57 | 1009.7 |
| 20260504184044 | 70 | 322 | 2.0 | 4.0 | 0.00 | 0.00 | 0.00 | 57 | 1009.7 |
| 20260504183543 | 69 | 319 | 2.0 | 4.0 | 0.00 | 0.00 | 0.00 | 55 | 1009.6 |
| 20260504183044 | 70 | 332 | 2.0 | 4.0 | 0.00 | 0.00 | 0.00 | 55 | 1009.7 |
| 20260504182541 | 70 | 333 | 2.0 | 4.0 | 0.00 | 0.00 | 0.00 | 57 | 1009.7 |
| 20260504182041 | 69 | 318 | 2.0 | 4.0 | 0.00 | 0.00 | 0.00 | 58 | 1009.8 |
| 20260504181539 | 69 | 317 | 2.0 | 4.0 | 0.00 | 0.00 | 0.00 | 58 | 1009.7 |
| 20260504181039 | 70 | 309 | 2.0 | 3.0 | 0.00 | 0.00 | 0.00 | 57 | 1009.6 |
| 20260504180539 | 69 | 308 | 2.0 | 3.0 | 0.00 | 0.00 | 0.00 | 58 | 1009.6 |
| 20260504180039 | 69 | 295 | 2.0 | 3.0 | 0.00 | 0.00 | 0.00 | 58 | 1009.7 |
| 20260504175808 | 68 | 302 | 2.0 | 4.0 | 0.00 | 0.00 | 0.00 | 61 | 1009.7 |
| 20260504175038 | 68 | 306 | 2.0 | 4.0 | 0.00 | 0.00 | 0.00 | 60 | 1009.7 |
| 20260504174535 | 69 | 13 | 2.0 | 4.0 | 0.00 | 0.00 | 0.00 | 59 | 1009.6 |
| 20260504174035 | 68 | 18 | 2.0 | 4.0 | 0.00 | 0.00 | 0.00 | 62 | 1009.6 |
| 20260504173535 | 68 | 15 | 2.0 | 4.0 | 0.00 | 0.00 | 0.00 | 63 | 1009.7 |
| 20260504173032 | 68 | 10 | 2.0 | 4.0 | 0.00 | 0.00 | 0.00 | 62 | 1009.7 |
| 20260504172531 | 67 | 20 | 2.0 | 5.0 | 0.00 | 0.00 | 0.00 | 63 | 1009.7 |
| 20260504172031 | 67 | 355 | 3.0 | 6.0 | 0.00 | 0.00 | 0.00 | 62 | 1009.7 |
| 20260504171031 | 68 | 60 | 2.0 | 6.0 | 0.00 | 0.00 | 0.00 | 63 | 1009.7 |
| 20260504170257 | 68 | 99 | 2.0 | 7.0 | 0.00 | 0.00 | 0.00 | 62 | 1009.6 |
| 20260504151008 | 61 | 13 | 2.0 | 3.0 | 0.00 | 0.00 | 0.00 | 76 | 1009.6 |
| 20260504150506 | 60 | 11 | 2.0 | 4.0 | 0.00 | 0.00 | 0.00 | 76 | 1009.5 |
| 20260504141232 | 59 | 91 | 2.0 | 6.0 | 0.00 | 0.00 | 0.00 | 73 | 1009.0 |
| 20260504140502 | 59 | 103 | 2.0 | 4.0 | 0.00 | 0.00 | 0.00 | 75 | 1009.0 |
| 20260504130501 | 59 | 153 | 1.0 | 4.0 | 0.00 | 0.00 | 0.00 | 76 | 1008.9 |
| 20260504110653 | 62 | 89 | 0.0 | 2.0 | 0.00 | 0.00 | 0.00 | 62 | 1008.8 |
| 20260504081905 | 72 | 241 | 3.0 | 7.0 | 0.00 | 0.00 | 0.00 | 37 | 1008.6 |
| 20260504081403 | 72 | 175 | 3.0 | 7.0 | 0.00 | 0.00 | 0.00 | 36 | 1008.6 |
| 20260504080911 | 72 | 234 | 3.0 | 6.0 | 0.00 | 0.00 | 0.00 | 37 | 1008.6 |
| 20260504080416 | 72 | 237 | 3.0 | 7.0 | 0.00 | 0.00 | 0.00 | 37 | 1008.7 |
| 20260504080137 | 71 | 186 | 2.0 | 7.0 | 0.00 | 0.00 | 0.00 | 37 | 1008.7 |
| 20260504070336 | 72 | 157 | 2.0 | 5.0 | 0.00 | 0.00 | 0.00 | 33 | 1008.6 |